Hourly Data Report for October 07, 2019

All times are specified in Local Standard Time (LST). Add 1 hour to adjust for Daylight Saving Time where and when it is observed.

EUREKA CLIMATE
NUNAVUT
Current Station Operator: ECCC - MSC

79°59'21.000" N
85°56'02.000" W
10.00 m
2401199
71613
NEK

Download Data

Hourly Data (October 2019)
Hourly Data Report for October 7, 2019
TIME Temp Definition
°C
Dew Point Definition
°C
Rel Hum Definition
%
Wind Dir Definition
10's deg

Wind Spd Definition
km/h
Visibility Definition
km
Stn Press Definition
kPa
Hmdx Definition


Wind Chill Definition


Weather Definition


00:00 -3.9 -5.0 92 15 39   98.87   -13 LegendNANA
01:00 -3.8 -5.7 86 15 43   98.91   -13 LegendNANA
02:00 -3.9 -5.9 86 14 38   99.00   -12 LegendNANA
03:00 -4.3 -5.6 91 13 33   99.05   -12 LegendNANA
04:00 -4.2 -6.6 84 14 38   99.10   -13 LegendNANA
05:00 -4.5 -6.8 84 14 38   99.15   -13 LegendNANA
06:00 -4.4 -7.0 82 15 46   99.15   -14 LegendNANA
07:00 -4.5 -7.2 82 15 44   99.21   -14 LegendNANA
08:00 -4.7 -7.0 84 15 47   99.25   -14 LegendNANA
09:00 -4.7 -7.5 81 15 41   99.30   -14 LegendNANA
10:00 -4.7 -6.9 85 14 40   99.36   -14 LegendNANA
11:00 -4.6 -6.5 87 15 40   99.37   -14 LegendNANA
12:00 -4.8 -5.8 92 15 40   99.43   -14 LegendNANA
13:00 -4.7 -6.4 88 15 44   99.49   -14 LegendNANA
14:00 -5.0 -7.5 83 16 36   99.55   -14 LegendNANA
15:00 -5.0 -6.4 90 16 46   99.56   -15 LegendNANA
16:00 -5.0 -6.4 90 15 37   99.68   -14 LegendNANA
17:00 -5.0 -5.6 96 16 40   99.69   -14 LegendNANA
18:00 -4.8 -5.0 99 17 48   99.71   -15 LegendNANA
19:00 -4.6 -5.1 96 17 49   99.73   -14 LegendNANA
20:00 -4.8 -5.4 95 15 44   99.81   -14 LegendNANA
21:00 -4.3 -6.2 87 15 44   99.85   -14 LegendNANA
22:00 -4.1 -6.7 82 15 39   99.92   -13 LegendNANA
23:00 -4.3 -6.4 85 13 28   99.97   -12 LegendNANA

Notes on Data Quality.

Legend

  • E = Estimated
  • M = Missing
  • NA = Not Available
Date modified: